Weather History for Chippewa, MI

Change the Weather History Date:

Monday, July 29, 2013

  Actual Average Record
Temperature  
Mean Temperature 58 °F -  
Max Temperature 66 °F 76 °F 87 °F (1988)
Min Temperature 51 °F 50 °F 37 °F (1981)
Degree Days  
Heating Degree Days 6    
Growing Degree Days 8 (Base 50)    
Moisture  
Dew Point 53 °F    
Average Humidity 87    
Maximum Humidity 100    
Minimum Humidity 56    
Precipitation  
Precipitation 0.01 in - - ()
Sea Level Pressure  
Sea Level Pressure 30.02 in    
Wind  
Wind Speed 6 mph (WNW)    
Max Wind Speed 16 mph    
Max Gust Speed 22 mph    
Visibility 8 miles    
Events      
Averages and records for this station are not official NWS values.
T = Trace of Precipitation, MM = Missing Value Source: NWS Daily Summary

Daily Weather History Graph

Daily Weather History Graph

Search for Another Location

Airport:

Trip Planner

Search our weather history database for the weather conditions in past years. The results will help you decide how hot, cold, wet, or windy it might be!

Date:

Astronomy

Jul. 29, 2013 Rise Set
Actual Time 6:16 AM EDT 9:11 PM EDT
Civil Twilight 5:41 AM EDT 9:46 PM EDT
Nautical Twilight 4:56 AM EDT 10:31 PM EDT
Astronomical Twilight 4:02 AM EDT 11:24 PM EDT
Moon 12:05 AM EDT (7/29) 2:27 PM EDT (7/29)
Length of Visible Light 16h 05m
Length of Day
14h 55m
Waning Gibbous, 51% of the Moon is Illuminated
Jul 29
Waning Gibbous
Jul 29
Last Quarter
Aug 6
New
Aug 14
First Quarter
Aug 20
Full

Hourly Weather History & Observations

Time (EDT) Temp. Dew Point Humidity Pressure Visibility Wind Dir Wind Speed Gust Speed Precip Events Conditions
12:15 AM 53.6 °F 51.8 °F 94% 29.90 in 10.0 mi Calm Calm - N/A   Scattered Clouds
12:35 AM 53.6 °F 53.6 °F 100% 29.90 in 10.0 mi Calm Calm - N/A   Scattered Clouds
12:55 AM 53.6 °F 53.6 °F 100% 29.91 in 5.0 mi Calm Calm - N/A   Scattered Clouds
1:15 AM 53.6 °F 53.6 °F 100% 29.91 in 0.5 mi West 3.5 mph - N/A   Overcast
1:35 AM 53.6 °F 51.8 °F 94% 29.91 in 0.2 mi West 4.6 mph - N/A   Overcast
1:55 AM 53.6 °F 53.6 °F 100% 29.92 in 1.2 mi WNW 4.6 mph - N/A   Overcast
2:15 AM 53.6 °F 51.8 °F 94% 29.92 in 0.2 mi West 4.6 mph - N/A   Overcast
2:35 AM 53.6 °F 51.8 °F 94% 29.92 in 0.5 mi WSW 5.8 mph - N/A   Overcast
2:55 AM 53.6 °F 53.6 °F 100% 29.92 in 1.5 mi West 4.6 mph - N/A   Overcast
3:15 AM 53.6 °F 53.6 °F 100% 29.92 in 9.0 mi WSW 5.8 mph - N/A   Overcast
3:35 AM 53.6 °F 53.6 °F 100% 29.92 in 10.0 mi West 4.6 mph - N/A   Overcast
3:55 AM 53.6 °F 51.8 °F 94% 29.93 in 10.0 mi West 5.8 mph - N/A   Overcast
4:15 AM 53.6 °F 51.8 °F 94% 29.93 in 10.0 mi West 4.6 mph - N/A   Overcast
4:35 AM 53.6 °F 53.6 °F 100% 29.93 in 10.0 mi West 3.5 mph - N/A   Overcast
4:55 AM 53.6 °F 51.8 °F 94% 29.93 in 10.0 mi NW 5.8 mph - N/A   Overcast
5:15 AM 53.6 °F 51.8 °F 94% 29.93 in 10.0 mi WNW 4.6 mph - N/A   Mostly Cloudy
5:35 AM 53.6 °F 53.6 °F 100% 29.94 in 10.0 mi NW 6.9 mph - N/A   Mostly Cloudy
5:55 AM 53.6 °F 51.8 °F 94% 29.95 in 10.0 mi West 4.6 mph - N/A   Overcast
6:15 AM 51.8 °F 51.8 °F 100% 29.96 in 10.0 mi WSW 5.8 mph - N/A   Overcast
6:35 AM 51.8 °F 51.8 °F 100% 29.96 in 10.0 mi West 4.6 mph - N/A   Overcast
6:55 AM 51.8 °F 51.8 °F 100% 29.97 in 10.0 mi West 5.8 mph - N/A   Overcast
7:15 AM 51.8 °F 51.8 °F 100% 29.97 in 10.0 mi West 6.9 mph - N/A   Overcast
7:35 AM 53.6 °F 53.6 °F 100% 29.97 in 10.0 mi West 6.9 mph - N/A   Overcast
7:55 AM 53.6 °F 53.6 °F 100% 29.97 in 10.0 mi West 5.8 mph - N/A   Overcast
8:15 AM 53.6 °F 53.6 °F 100% 29.97 in 10.0 mi West 5.8 mph - N/A   Overcast
8:35 AM 53.6 °F 53.6 °F 100% 29.98 in 7.0 mi West 4.6 mph - N/A   Overcast
8:55 AM 53.6 °F 53.6 °F 100% 29.98 in 6.0 mi West 5.8 mph - N/A   Overcast
9:15 AM 53.6 °F 53.6 °F 100% 29.98 in 9.0 mi WNW 8.1 mph - N/A   Overcast
9:35 AM 53.6 °F 53.6 °F 100% 29.99 in 2.0 mi West 5.8 mph - N/A   Overcast
9:55 AM 53.6 °F 51.8 °F 94% 29.99 in 2.5 mi West 4.6 mph - N/A   Overcast
10:15 AM 55.4 °F 55.4 °F 100% 30.00 in 2.0 mi West 8.1 mph - N/A   Overcast
10:35 AM 55.4 °F 55.4 °F 100% 30.00 in 2.0 mi West 8.1 mph - 0.01 in   Overcast
10:55 AM 55.4 °F 55.4 °F 100% 30.01 in 2.5 mi West 8.1 mph - 0.01 in   Overcast
11:15 AM 55.4 °F 53.6 °F 94% 30.02 in 9.0 mi West 6.9 mph - N/A   Overcast
11:35 AM 57.2 °F 55.4 °F 94% 30.03 in 10.0 mi West 12.7 mph 16.1 mph N/A   Overcast
11:55 AM 57.2 °F 55.4 °F 94% 30.03 in 10.0 mi WNW 12.7 mph - N/A   Overcast
12:15 PM 59.0 °F 55.4 °F 88% 30.03 in 10.0 mi WNW 16.1 mph - N/A   Mostly Cloudy
12:35 PM 59.0 °F 55.4 °F 88% 30.03 in 10.0 mi WNW 16.1 mph 21.9 mph N/A   Overcast
12:55 PM 60.8 °F 55.4 °F 82% 30.03 in 10.0 mi WNW 13.8 mph - N/A   Overcast
1:15 PM 60.8 °F 55.4 °F 82% 30.03 in 10.0 mi NW 13.8 mph 19.6 mph N/A   Overcast
1:35 PM 60.8 °F 53.6 °F 77% 30.04 in 10.0 mi WNW 12.7 mph - N/A   Overcast
1:55 PM 62.6 °F 53.6 °F 72% 30.04 in 10.0 mi WNW 16.1 mph 19.6 mph N/A   Overcast
2:15 PM 62.6 °F 53.6 °F 72% 30.04 in 10.0 mi NW 15.0 mph 19.6 mph N/A   Overcast
2:35 PM 62.6 °F 55.4 °F 77% 30.05 in 10.0 mi NW 11.5 mph 18.4 mph N/A   Mostly Cloudy
2:55 PM 62.6 °F 55.4 °F 77% 30.06 in 10.0 mi NW 15.0 mph 19.6 mph N/A   Mostly Cloudy
3:15 PM 64.4 °F 53.6 °F 68% 30.05 in 10.0 mi WNW 16.1 mph 21.9 mph N/A   Mostly Cloudy
3:35 PM 64.4 °F 55.4 °F 73% 30.06 in 10.0 mi WNW 13.8 mph 20.7 mph N/A   Partly Cloudy
3:55 PM 64.4 °F 55.4 °F 73% 30.06 in 10.0 mi NW 16.1 mph 19.6 mph N/A   Clear
4:15 PM 64.4 °F 55.4 °F 73% 30.07 in 10.0 mi NW 15.0 mph 18.4 mph N/A   Clear
4:35 PM 62.6 °F 53.6 °F 72% 30.08 in 10.0 mi NW 11.5 mph 18.4 mph N/A   Mostly Cloudy
4:55 PM 62.6 °F 53.6 °F 72% 30.08 in 10.0 mi NNW 13.8 mph 17.3 mph N/A   Overcast
5:15 PM 64.4 °F 53.6 °F 68% 30.08 in 10.0 mi NW 13.8 mph 19.6 mph N/A   Mostly Cloudy
5:35 PM 64.4 °F 53.6 °F 68% 30.08 in 10.0 mi NW 15.0 mph - N/A   Partly Cloudy
5:55 PM 64.4 °F 51.8 °F 64% 30.09 in 10.0 mi NW 15.0 mph - N/A   Clear
6:15 PM 66.2 °F 50.0 °F 56% 30.10 in 10.0 mi NNW 11.5 mph - N/A   Clear
6:35 PM 64.4 °F 50.0 °F 59% 30.10 in 10.0 mi NW 15.0 mph - N/A   Clear
6:55 PM 66.2 °F 51.8 °F 60% 30.10 in 10.0 mi WNW 11.5 mph 17.3 mph N/A   Clear
7:15 PM 64.4 °F 51.8 °F 64% 30.10 in 10.0 mi WNW 11.5 mph 17.3 mph N/A   Clear
7:35 PM 64.4 °F 51.8 °F 64% 30.10 in 10.0 mi WNW 12.7 mph - N/A   Clear
7:55 PM 64.4 °F 51.8 °F 64% 30.11 in 10.0 mi NW 6.9 mph - N/A   Clear
8:15 PM 64.4 °F 51.8 °F 64% 30.11 in 10.0 mi NW 9.2 mph - N/A   Clear
8:35 PM 62.6 °F 53.6 °F 72% 30.12 in 10.0 mi NW 4.6 mph - N/A   Clear
8:55 PM 60.8 °F 53.6 °F 77% 30.12 in 10.0 mi North 4.6 mph - N/A   Clear
9:15 PM 60.8 °F 53.6 °F 77% 30.12 in 10.0 mi NNW 5.8 mph - N/A   Clear
9:35 PM 57.2 °F 53.6 °F 88% 30.13 in 10.0 mi NNW 3.5 mph - N/A   Clear
9:55 PM 57.2 °F 53.6 °F 88% 30.14 in 10.0 mi North 5.8 mph - N/A   Clear
10:15 PM 57.2 °F 53.6 °F 88% 30.15 in 10.0 mi NW 4.6 mph - N/A   Clear
10:35 PM 55.4 °F 53.6 °F 94% 30.15 in 10.0 mi Calm Calm - N/A   Clear
10:55 PM 55.4 °F 53.6 °F 94% 30.15 in 10.0 mi WNW 3.5 mph - N/A   Clear
11:15 PM 55.4 °F 53.6 °F 94% 30.15 in 10.0 mi Calm Calm - N/A   Clear
11:35 PM 55.4 °F 53.6 °F 94% 30.15 in 10.0 mi Calm Calm - N/A   Clear
11:55 PM 53.6 °F 53.6 °F 100% 30.16 in 10.0 mi West 5.8 mph - N/A   Clear